CAPE
nan 0 nan nan nan nan nan nan nan nan nan nan nan nan nan nan nan nan nan nan nan nan nan nan nan nan nan 2 4 4 6 7 7 7 3 2 5 5 7 6 6 7 7 6 6 5 3 2 2 1 2 2 3 3 2 3 3 6 14 20 20 22 22 18 18 15 10 7 6 6 5 2 nan nan nan nan nan nan nan nan nan nan nan nan nan nan
nan 0 nan nan nan nan nan nan nan nan nan nan nan nan nan nan nan nan nan nan nan nan nan nan nan nan nan 1 5 5 7 9 6 6 3 3 8 8 10 9 9 9 7 6 6 3 1 nan nan nan nan 0 1 1 1 2 2 5 11 16 16 18 19 19 19 15 9 6 2 2 0 nan nan nan nan nan nan nan nan nan nan nan nan nan nan nan
nan nan nan nan nan nan nan nan nan nan nan nan nan nan nan nan nan nan nan nan nan nan nan nan nan nan nan 0 8 8 9 10 7 7 2 4 9 9 10 9 9 8 8 5 5 3 nan nan nan nan nan nan nan nan 0 1 1 2 6 8 8 6 7 7 7 2 1 nan nan nan nan nan nan nan nan nan nan nan nan nan nan nan nan nan nan nan
nan nan nan nan nan nan nan nan nan nan nan nan nan nan nan nan nan nan nan nan nan nan nan nan nan nan nan nan 12 12 10 12 7 7 4 7 9 9 9 8 8 8 7 6 6 2 nan nan nan nan nan nan nan nan nan nan nan nan 0 0 0 0 nan nan nan nan nan nan nan nan nan nan nan nan nan nan nan nan nan nan nan nan nan nan nan nan
nan nan nan nan nan nan nan nan nan nan nan nan nan nan nan nan nan nan nan nan nan nan nan nan nan nan nan nan 0 0 10 11 9 9 6 8 8 8 8 9 9 9 7 7 7 4 1 nan nan nan nan nan nan nan nan nan nan nan nan nan nan nan nan nan nan nan nan nan nan nan nan nan nan nan nan nan nan nan nan nan nan nan nan nan nan nan
nan nan nan nan nan nan nan nan nan nan nan nan nan nan nan nan nan nan nan nan nan nan nan nan nan nan nan nan nan nan 6 15 10 10 9 9 9 9 10 11 11 10 8 8 8 7 4 1 1 nan nan nan nan nan nan nan nan nan nan nan nan nan nan nan nan nan nan nan nan nan nan nan nan nan nan nan nan nan nan nan nan nan nan nan nan nan
nan nan nan nan nan nan nan nan nan nan nan nan nan nan nan nan nan nan nan nan nan nan nan nan nan nan nan nan nan nan nan 1 9 9 6 9 12 12 13 14 14 12 11 9 9 8 7 6 6 2 1 0 nan nan nan nan nan nan nan nan nan nan nan nan nan nan nan nan nan nan nan nan nan nan nan nan nan nan nan nan nan nan nan nan nan nan
nan nan nan nan nan nan nan nan nan nan nan nan nan nan nan nan nan nan nan nan nan nan nan nan nan nan nan nan nan nan nan nan nan nan nan nan nan nan 5 16 16 17 15 12 12 10 10 11 11 13 14 14 11 11 7 2 2 nan nan nan nan nan nan nan nan nan nan nan nan nan nan nan nan nan nan nan nan nan nan nan nan nan nan nan nan nan
nan nan nan nan nan nan nan nan nan nan nan nan nan nan nan nan nan nan nan nan nan nan nan nan nan nan nan nan nan nan nan nan nan nan nan nan nan nan nan 10 10 14 15 15 15 12 11 11 11 14 15 14 14 14 8 2 2 nan nan nan nan nan nan nan nan nan nan nan nan nan nan nan nan nan nan nan nan nan nan nan nan nan nan nan nan nan
nan nan nan nan nan nan nan nan nan nan nan nan nan nan nan nan nan nan nan nan nan nan nan nan nan nan nan nan nan nan nan nan nan nan nan nan 0 0 nan nan nan nan 10 12 12 12 11 10 10 12 12 10 11 11 7 1 1 nan nan nan nan nan nan nan nan nan nan nan nan nan nan nan nan nan nan nan nan nan nan nan nan nan nan nan nan nan
nan nan nan nan nan nan nan nan nan nan nan nan nan nan nan nan nan nan nan nan nan nan nan nan nan nan nan nan nan nan nan nan nan nan nan nan nan nan nan nan nan nan nan nan nan 4 5 6 6 8 8 7 7 7 6 1 1 nan nan nan nan nan nan nan nan nan nan nan nan nan nan nan nan nan nan nan nan nan nan nan nan nan nan nan nan nan
nan nan nan nan nan nan nan nan nan nan nan nan nan nan nan nan nan nan nan nan nan nan nan nan nan nan nan nan nan nan nan nan nan nan nan nan nan nan nan nan nan nan nan nan nan nan nan 0 0 0 nan nan 1 1 1 nan nan 0 nan nan nan nan nan nan nan nan nan nan nan nan nan nan nan nan nan nan nan nan nan nan nan nan nan nan nan nan
nan nan nan nan nan nan nan nan nan nan nan nan nan nan nan nan nan nan nan nan nan nan nan nan nan nan nan nan nan nan nan nan nan nan nan nan nan nan nan nan nan nan nan nan nan nan nan nan nan nan nan nan nan nan nan nan nan nan nan nan nan nan nan nan nan nan nan nan nan nan nan nan nan nan nan nan nan nan nan nan nan nan nan nan nan nan
nan nan nan nan nan nan nan nan nan nan nan nan nan nan nan nan nan nan nan nan nan nan nan nan nan nan nan nan nan nan nan nan nan nan nan nan nan nan nan nan nan nan nan nan nan nan nan nan nan nan nan nan nan nan nan nan nan nan nan nan nan nan nan nan nan nan nan nan nan nan nan nan nan nan nan nan nan nan nan nan nan nan nan nan nan nan
nan nan nan nan nan nan nan nan nan nan nan nan nan nan nan nan nan nan nan nan nan nan nan nan nan nan nan nan nan nan nan nan nan nan nan nan nan nan nan nan nan nan nan nan nan nan nan nan nan nan nan nan nan nan nan nan nan nan nan nan nan nan nan nan nan nan nan nan nan nan nan nan nan nan nan nan nan nan nan nan nan nan nan nan nan nan
nan nan nan nan nan nan nan nan nan nan nan nan nan nan nan nan nan nan nan nan nan nan nan nan nan nan nan nan nan nan nan nan nan nan nan nan nan nan nan nan nan nan nan nan nan nan nan nan nan nan nan nan nan nan nan nan nan nan nan nan nan nan nan nan nan nan nan nan nan nan nan nan nan nan nan nan nan nan nan nan nan nan nan nan nan nan
nan nan nan nan nan nan nan nan nan nan nan nan nan nan nan nan nan nan nan nan nan nan nan nan nan nan nan nan nan nan nan nan nan nan nan nan nan nan nan nan nan nan nan nan nan nan nan nan nan nan nan nan nan nan nan nan nan nan nan nan nan nan nan nan nan nan nan nan nan nan nan nan nan nan 0 0 nan nan nan nan nan nan nan nan nan nan
nan nan nan nan nan nan nan nan nan nan nan nan nan nan nan nan nan nan nan nan nan nan nan nan nan nan nan nan nan nan nan nan nan nan nan nan nan nan nan nan nan nan nan nan nan nan nan nan nan nan nan nan nan nan nan nan nan nan nan nan nan nan nan nan nan nan nan nan 0 0 nan nan nan nan 0 1 0 0 0 nan nan nan nan nan nan nan
nan nan nan nan nan nan nan nan nan nan nan nan nan nan nan nan nan nan nan nan nan nan nan nan nan nan nan nan nan nan nan nan nan nan nan nan nan nan nan nan nan nan nan nan nan nan nan nan nan nan nan nan nan nan nan nan nan nan nan nan nan nan nan nan nan nan nan nan 0 0 0 nan 0 0 1 1 1 1 0 0 0 nan nan nan nan nan
nan nan nan nan nan nan nan nan nan nan nan nan nan nan nan nan nan nan nan nan nan nan nan nan nan nan nan nan nan nan nan nan nan nan nan nan nan nan nan nan nan nan nan nan nan nan nan nan nan nan nan nan nan nan nan nan nan nan nan nan nan nan nan nan nan nan nan 0 1 1 0 0 0 0 1 1 1 1 1 0 0 nan nan 0 0 1
nan nan nan nan nan nan nan nan nan nan nan nan nan nan nan nan nan nan nan nan nan nan nan nan nan nan nan nan nan nan nan nan nan nan nan nan nan nan nan nan nan nan nan nan nan nan nan nan nan nan nan nan nan nan nan nan nan nan nan nan nan nan nan nan nan nan nan 0 1 1 1 0 1 1 2 2 1 1 1 0 0 0 nan 0 0 2
nan nan nan nan nan nan nan nan nan nan nan nan nan nan nan nan nan nan nan nan nan nan nan nan nan nan nan nan nan nan nan nan nan nan nan nan nan nan nan nan nan nan nan nan nan nan nan nan nan nan nan nan nan nan nan nan nan nan nan nan nan nan nan nan nan nan 0 1 2 2 2 1 2 2 3 4 3 3 2 1 1 2 1 2 2 3
nan nan nan nan nan nan nan nan nan nan nan nan nan nan nan nan nan nan nan nan nan nan nan nan nan nan nan nan nan nan nan nan nan nan nan nan nan nan nan nan nan nan nan nan nan nan nan nan nan nan nan nan nan nan nan nan nan nan nan nan nan nan nan nan nan 0 1 2 3 3 2 2 3 3 5 6 6 6 4 3 3 4 4 5 5 6
nan nan nan nan nan nan nan nan nan nan nan nan nan nan nan nan nan nan nan nan nan nan nan nan nan nan nan nan nan nan nan nan nan nan nan nan nan nan nan nan nan nan nan nan nan nan nan nan nan nan nan nan nan nan nan nan nan nan nan nan nan nan nan nan nan 0 2 3 3 3 3 3 4 4 6 8 8 8 7 6 6 6 8 8 8 10
nan nan nan nan nan nan nan nan nan nan nan nan nan nan nan nan nan nan nan nan nan nan nan nan nan nan nan nan nan nan nan nan nan nan nan nan nan nan nan nan nan nan nan nan nan nan nan nan nan nan nan nan nan nan nan nan nan nan nan nan nan nan nan nan nan 1 2 3 3 3 3 3 4 4 6 8 10 10 9 9 9 9 10 11 11 14
nan nan nan nan nan nan nan nan nan nan nan nan nan nan nan nan nan nan nan nan nan nan nan nan nan nan nan nan nan nan nan nan nan nan nan nan nan nan nan nan nan nan nan nan nan nan nan nan nan nan nan nan nan nan nan nan nan nan nan nan nan nan nan nan nan 1 1 2 2 2 2 2 3 3 6 8 10 10 11 11 11 11 12 13 13 15
nan nan nan nan nan nan 0 0 1 1 0 nan nan nan nan nan nan nan nan nan nan nan nan nan nan nan nan nan nan nan nan nan nan nan nan nan nan nan nan nan nan nan nan nan nan nan nan nan nan nan nan nan nan nan nan nan nan nan nan nan nan nan nan nan nan 0 1 2 2 2 2 2 3 3 5 7 10 10 12 12 12 12 15 15 15 14
nan nan nan nan nan 0 0 1 2 2 2 0 nan nan nan nan nan nan nan nan nan nan nan nan nan nan nan nan nan nan nan nan nan nan nan nan nan nan nan nan nan nan nan nan nan nan nan nan nan nan nan nan nan nan nan nan nan nan nan nan nan nan nan nan nan nan 0 1 2 2 2 3 4 4 5 6 9 9 10 13 13 14 15 8 8 nan
0 1 0 1 1 0 1 2 3 3 3 1 nan nan nan nan nan nan nan nan nan nan nan nan nan nan nan nan nan nan nan nan nan nan nan nan nan nan nan nan nan nan nan nan nan nan nan nan nan nan nan nan nan nan nan nan nan nan nan nan nan nan nan nan nan nan 0 2 3 3 4 4 5 5 6 7 9 9 11 13 13 13 7 nan nan nan
nan nan nan nan nan nan 2 nan 3 3 3 2 nan nan nan nan nan nan nan nan nan nan nan nan nan nan nan nan nan nan nan nan nan nan nan nan nan nan nan nan nan nan nan nan nan nan nan nan nan nan nan nan nan nan nan nan nan nan nan nan nan nan nan nan nan 0 1 3 4 4 6 7 6 6 6 7 9 9 11 14 14 4 nan nan nan nan
nan nan nan nan nan nan nan nan nan nan 6 3 nan nan nan nan nan nan nan nan nan nan nan nan nan nan nan nan nan nan nan nan nan nan nan nan nan nan nan nan nan nan nan nan nan nan nan nan nan nan nan nan nan nan nan nan nan nan nan nan nan nan nan nan nan 0 3 5 7 7 7 7 7 7 7 8 9 9 11 14 14 nan nan nan nan nan
nan nan nan nan nan nan nan nan nan nan nan nan nan nan nan nan nan nan nan nan nan nan nan nan nan nan nan nan nan nan nan nan nan nan nan nan nan nan nan nan nan nan nan nan nan nan nan nan nan nan nan nan nan nan nan nan nan nan nan nan nan nan nan nan nan nan nan nan nan nan 1 1 4 4 5 6 6 6 6 7 7 6 nan nan nan nan
nan nan nan nan nan nan nan nan nan nan nan nan nan nan nan nan nan nan nan nan nan nan nan nan nan nan nan nan nan nan nan nan nan nan nan nan nan nan nan nan nan nan nan nan nan nan nan nan nan nan nan nan nan nan nan nan nan nan nan nan nan nan nan nan nan nan nan nan nan nan nan nan nan nan 1 4 4 4 5 6 6 4 nan nan nan nan
nan nan nan nan nan nan nan nan nan nan nan nan nan nan nan nan nan nan nan nan nan nan nan nan nan nan nan nan nan nan nan nan nan nan nan nan nan nan nan nan nan nan nan nan nan nan nan nan nan nan nan nan nan nan nan nan nan nan nan nan nan nan nan nan nan nan nan nan nan nan nan nan nan nan nan nan 0 0 2 4 4 4 4 nan nan nan
nan nan nan nan nan nan nan nan nan nan nan nan nan nan nan nan nan nan nan nan nan nan nan nan nan nan nan nan nan nan nan nan nan nan 0 nan nan nan nan nan nan nan nan nan nan nan nan nan nan nan nan nan nan nan nan nan nan nan nan nan nan nan nan nan nan nan nan nan nan nan nan nan nan nan nan nan nan nan nan 1 1 4 6 0 0 nan
nan nan nan nan nan nan nan nan nan nan nan nan nan nan nan nan nan nan nan nan nan nan nan nan nan nan nan nan nan nan nan nan nan nan 1 nan nan nan nan nan nan nan nan nan nan nan nan nan nan nan nan nan nan nan nan nan nan nan nan nan nan nan nan nan nan nan nan nan nan nan nan nan nan nan nan nan nan nan nan nan nan nan 3 3 3 nan
nan nan nan nan nan nan nan nan nan nan nan nan nan nan nan nan nan nan nan nan nan nan nan nan nan nan nan nan nan nan nan nan nan nan 0 nan nan nan nan nan nan nan nan nan nan nan nan nan nan nan nan nan nan nan nan nan nan nan nan nan nan nan nan nan nan nan nan nan nan nan nan nan nan nan nan nan nan nan nan nan nan nan nan 0 0 1
nan nan nan nan nan nan nan nan nan nan nan nan nan nan nan nan nan nan nan nan nan nan nan nan nan nan nan nan nan nan nan nan nan nan nan nan nan nan nan nan nan nan nan nan nan nan nan nan nan nan nan nan nan nan nan nan nan nan nan nan nan nan nan nan nan nan nan nan nan nan nan nan nan nan nan nan nan nan nan nan nan nan nan nan nan nan
nan nan nan nan nan nan nan nan nan nan nan nan nan nan nan nan nan nan nan nan nan nan nan nan nan nan nan nan nan nan nan nan nan nan nan nan nan nan nan nan nan nan nan nan nan nan nan nan nan nan nan nan nan nan nan nan nan nan nan nan nan nan nan nan nan nan nan nan nan nan nan nan nan nan nan nan nan nan nan nan nan nan nan nan nan nan
nan nan nan nan nan nan nan nan nan nan nan nan nan nan nan nan nan nan nan nan nan nan nan nan nan nan nan nan nan nan nan nan nan nan nan nan nan nan nan nan nan nan nan nan nan nan nan nan nan nan nan nan nan nan nan nan nan nan nan nan nan nan nan nan nan nan nan nan nan nan nan nan nan nan nan nan nan nan nan nan nan nan nan nan nan nan
nan nan nan nan nan nan nan nan nan nan nan nan nan nan nan nan nan nan nan nan nan nan nan nan nan nan nan nan nan nan nan nan nan nan nan nan nan nan nan nan nan nan nan nan nan nan nan nan nan nan nan nan nan nan nan nan nan nan nan nan nan nan nan nan nan nan nan nan nan nan nan nan nan nan nan nan nan nan nan nan nan nan nan nan nan nan
nan nan nan nan nan nan nan nan nan nan nan nan nan nan nan nan nan nan nan nan nan nan nan nan nan nan nan nan nan nan nan nan nan nan nan nan nan nan nan nan nan nan nan nan nan nan nan nan nan nan nan nan nan nan nan nan nan nan nan nan nan nan nan nan nan nan nan nan nan nan nan nan nan nan nan nan nan nan nan nan nan nan nan nan nan nan
nan nan nan nan nan nan nan nan nan nan nan nan nan nan nan nan nan nan nan nan nan nan nan nan nan nan nan nan nan nan nan nan nan nan nan nan nan nan nan nan nan nan nan nan nan nan nan nan nan nan nan nan nan nan nan nan nan nan nan nan nan nan nan nan nan nan nan nan nan nan nan nan nan nan nan nan nan nan nan nan nan nan nan nan nan nan
nan nan nan nan nan nan nan nan nan nan nan nan nan nan nan nan nan nan nan nan nan nan nan nan nan nan nan nan nan nan nan nan nan nan nan nan nan nan nan nan nan nan nan nan nan nan nan nan nan nan nan nan nan nan nan nan nan nan nan nan nan nan nan nan nan nan nan nan nan nan nan nan nan nan nan nan nan nan nan nan nan nan nan nan nan nan
nan nan nan nan nan nan nan nan nan nan nan nan nan nan nan nan nan nan nan nan nan nan nan nan nan nan nan nan nan nan nan nan nan nan nan nan 1 1 nan nan nan nan nan nan nan nan nan nan nan nan nan nan nan nan nan nan nan nan nan nan nan nan nan nan nan nan nan nan nan nan nan nan nan nan nan nan nan nan nan nan nan nan nan nan nan nan
nan nan nan nan nan nan nan nan nan nan nan nan nan nan nan nan nan nan nan nan nan nan nan nan nan nan nan nan nan nan nan nan nan nan nan nan nan nan nan nan nan nan nan nan nan nan nan nan nan nan nan nan nan nan nan nan nan nan nan nan nan nan nan nan nan nan nan nan nan nan nan nan nan nan nan nan nan nan nan nan nan nan nan nan nan nan
nan nan nan nan nan nan nan nan nan nan nan nan nan nan nan nan nan nan nan nan nan nan nan nan nan nan nan nan nan nan nan nan nan nan nan nan nan nan nan 0 0 nan nan nan nan nan nan nan nan nan nan nan nan nan nan nan nan nan nan nan nan nan nan nan nan nan nan nan nan nan nan nan nan nan nan nan nan nan nan nan nan nan nan nan nan nan
nan nan nan nan nan nan nan nan nan nan nan nan nan nan nan nan nan nan nan nan nan nan nan nan nan nan nan nan nan nan nan nan nan nan nan nan nan nan nan nan nan nan 0 nan nan nan nan nan nan nan nan nan nan nan nan nan nan nan nan nan nan nan nan nan nan nan nan nan nan nan nan nan nan nan nan nan nan nan nan nan nan nan nan nan nan nan
nan nan nan nan nan nan nan nan nan nan nan nan nan nan nan nan nan nan nan nan nan nan nan nan nan nan nan nan nan nan nan nan nan nan nan nan nan nan nan nan nan nan nan 0 0 0 nan nan nan nan nan nan nan nan nan nan nan nan nan nan nan nan nan nan nan nan nan nan nan nan nan nan nan nan nan nan nan nan nan nan nan nan nan nan nan nan
nan nan nan nan nan nan nan nan nan nan nan nan nan nan nan nan nan nan nan nan nan nan nan nan nan nan nan nan nan nan nan nan nan nan nan nan nan nan nan nan nan nan nan nan nan nan nan 0 0 nan nan nan nan nan nan nan nan nan nan nan nan nan nan nan nan nan nan nan nan nan nan nan nan nan nan nan nan nan nan nan nan nan nan nan nan nan
nan nan nan nan nan nan nan nan nan nan nan nan nan nan nan nan nan nan nan nan nan nan nan nan nan nan nan nan nan nan nan nan nan nan nan nan nan nan nan nan nan nan nan nan nan nan nan nan nan nan nan 7 nan nan nan nan nan nan nan nan nan nan nan nan nan nan nan nan nan nan nan nan nan nan nan nan nan nan nan nan nan nan nan nan nan nan
CIN
nan -0 nan nan nan nan nan nan nan nan nan nan nan nan nan nan nan nan nan nan nan nan nan nan nan nan nan -0 -0 -0 -0 -0 -0 -0 -0 -0 -0 -0 -0 -0 -0 -0 -0 -0 -0 -0 -0 -0 -0 -0 -0 -0 -0 -0 -0 -0 -0 -0 -0 -0 -0 -0 -0 -0 -0 -0 -0 -0 -0 -0 -0 -0 nan nan nan nan nan nan nan nan nan nan nan nan nan nan
nan -0 nan nan nan nan nan nan nan nan nan nan nan nan nan nan nan nan nan nan nan nan nan nan nan nan nan -1 -0 -0 -0 -0 -0 -0 -0 -1 -0 -0 -0 -0 -0 -0 -0 -0 -0 -0 -0 nan nan nan nan -0 -0 -0 -0 -0 -0 -0 -0 -0 -0 -0 -0 -0 -0 -0 -0 -0 -0 -0 -0 nan nan nan nan nan nan nan nan nan nan nan nan nan nan nan
nan nan nan nan nan nan nan nan nan nan nan nan nan nan nan nan nan nan nan nan nan nan nan nan nan nan nan -2 -0 -0 -0 -0 -0 -0 -0 -1 -0 -0 -0 -0 -0 -0 -0 -0 -0 -0 nan nan nan nan nan nan nan nan -1 -2 -2 -1 -2 -3 -3 -2 -1 -0 -0 -0 -0 nan nan nan nan nan nan nan nan nan nan nan nan nan nan nan nan nan nan nan
nan nan nan nan nan nan nan nan nan nan nan nan nan nan nan nan nan nan nan nan nan nan nan nan nan nan nan nan -0 -0 -0 -0 -0 -0 -0 -0 -0 -0 -0 -0 -0 -0 -0 -0 -0 -0 nan nan nan nan nan nan nan nan nan nan nan nan -3 -7 -7 -7 nan nan nan nan nan nan nan nan nan nan nan nan nan nan nan nan nan nan nan nan nan nan nan nan
nan nan nan nan nan nan nan nan nan nan nan nan nan nan nan nan nan nan nan nan nan nan nan nan nan nan nan nan -3 -3 -0 -0 -0 -0 -0 -0 -0 -0 -0 -0 -0 -0 -0 -0 -0 -0 -0 nan nan nan nan nan nan nan nan nan nan nan nan nan nan nan nan nan nan nan nan nan nan nan nan nan nan nan nan nan nan nan nan nan nan nan nan nan nan nan
nan nan nan nan nan nan nan nan nan nan nan nan nan nan nan nan nan nan nan nan nan nan nan nan nan nan nan nan nan nan -3 -0 -0 -0 -0 -0 -0 -0 -0 -0 -0 -0 -0 -0 -0 -0 -0 -0 -0 nan nan nan nan nan nan nan nan nan nan nan nan nan nan nan nan nan nan nan nan nan nan nan nan nan nan nan nan nan nan nan nan nan nan nan nan nan
nan nan nan nan nan nan nan nan nan nan nan nan nan nan nan nan nan nan nan nan nan nan nan nan nan nan nan nan nan nan nan -9 -0 -0 -2 -0 -0 -0 -0 -0 -0 -0 -0 -0 -0 -0 -0 -0 -0 -0 -1 -2 nan nan nan nan nan nan nan nan nan nan nan nan nan nan nan nan nan nan nan nan nan nan nan nan nan nan nan nan nan nan nan nan nan nan
nan nan nan nan nan nan nan nan nan nan nan nan nan nan nan nan nan nan nan nan nan nan nan nan nan nan nan nan nan nan nan nan nan nan nan nan nan nan -8 -0 -0 -0 -0 -0 -0 -0 -0 -0 -0 -0 -0 -0 -0 -0 -0 -1 -1 nan nan nan nan nan nan nan nan nan nan nan nan nan nan nan nan nan nan nan nan nan nan nan nan nan nan nan nan nan
nan nan nan nan nan nan nan nan nan nan nan nan nan nan nan nan nan nan nan nan nan nan nan nan nan nan nan nan nan nan nan nan nan nan nan nan nan nan nan -5 -5 -1 -0 -0 -0 -0 -0 -0 -0 -0 -0 -0 -0 -0 -0 -0 -0 nan nan nan nan nan nan nan nan nan nan nan nan nan nan nan nan nan nan nan nan nan nan nan nan nan nan nan nan nan
nan nan nan nan nan nan nan nan nan nan nan nan nan nan nan nan nan nan nan nan nan nan nan nan nan nan nan nan nan nan nan nan nan nan nan nan -12 -12 nan nan nan nan -1 -0 -0 -0 -0 -0 -0 -0 -0 -1 -0 -0 -0 -1 -1 nan nan nan nan nan nan nan nan nan nan nan nan nan nan nan nan nan nan nan nan nan nan nan nan nan nan nan nan nan
nan nan nan nan nan nan nan nan nan nan nan nan nan nan nan nan nan nan nan nan nan nan nan nan nan nan nan nan nan nan nan nan nan nan nan nan nan nan nan nan nan nan nan nan nan -5 -6 -3 -3 -0 -1 -0 -0 -0 -0 -1 -1 nan nan nan nan nan nan nan nan nan nan nan nan nan nan nan nan nan nan nan nan nan nan nan nan nan nan nan nan nan
nan nan nan nan nan nan nan nan nan nan nan nan nan nan nan nan nan nan nan nan nan nan nan nan nan nan nan nan nan nan nan nan nan nan nan nan nan nan nan nan nan nan nan nan nan nan nan -0 -0 -10 nan nan -8 -8 -7 nan nan -2 nan nan nan nan nan nan nan nan nan nan nan nan nan nan nan nan nan nan nan nan nan nan nan nan nan nan nan nan
nan nan nan nan nan nan nan nan nan nan nan nan nan nan nan nan nan nan nan nan nan nan nan nan nan nan nan nan nan nan nan nan nan nan nan nan nan nan nan nan nan nan nan nan nan nan nan nan nan nan nan nan nan nan nan nan nan nan nan nan nan nan nan nan nan nan nan nan nan nan nan nan nan nan nan nan nan nan nan nan nan nan nan nan nan nan
nan nan nan nan nan nan nan nan nan nan nan nan nan nan nan nan nan nan nan nan nan nan nan nan nan nan nan nan nan nan nan nan nan nan nan nan nan nan nan nan nan nan nan nan nan nan nan nan nan nan nan nan nan nan nan nan nan nan nan nan nan nan nan nan nan nan nan nan nan nan nan nan nan nan nan nan nan nan nan nan nan nan nan nan nan nan
nan nan nan nan nan nan nan nan nan nan nan nan nan nan nan nan nan nan nan nan nan nan nan nan nan nan nan nan nan nan nan nan nan nan nan nan nan nan nan nan nan nan nan nan nan nan nan nan nan nan nan nan nan nan nan nan nan nan nan nan nan nan nan nan nan nan nan nan nan nan nan nan nan nan nan nan nan nan nan nan nan nan nan nan nan nan
nan nan nan nan nan nan nan nan nan nan nan nan nan nan nan nan nan nan nan nan nan nan nan nan nan nan nan nan nan nan nan nan nan nan nan nan nan nan nan nan nan nan nan nan nan nan nan nan nan nan nan nan nan nan nan nan nan nan nan nan nan nan nan nan nan nan nan nan nan nan nan nan nan nan nan nan nan nan nan nan nan nan nan nan nan nan
nan nan nan nan nan nan nan nan nan nan nan nan nan nan nan nan nan nan nan nan nan nan nan nan nan nan nan nan nan nan nan nan nan nan nan nan nan nan nan nan nan nan nan nan nan nan nan nan nan nan nan nan nan nan nan nan nan nan nan nan nan nan nan nan nan nan nan nan nan nan nan nan nan nan -0 -0 nan nan nan nan nan nan nan nan nan nan
nan nan nan nan nan nan nan nan nan nan nan nan nan nan nan nan nan nan nan nan nan nan nan nan nan nan nan nan nan nan nan nan nan nan nan nan nan nan nan nan nan nan nan nan nan nan nan nan nan nan nan nan nan nan nan nan nan nan nan nan nan nan nan nan nan nan nan nan -0 -0 nan nan nan nan -0 -0 -0 -0 -0 nan nan nan nan nan nan nan
nan nan nan nan nan nan nan nan nan nan nan nan nan nan nan nan nan nan nan nan nan nan nan nan nan nan nan nan nan nan nan nan nan nan nan nan nan nan nan nan nan nan nan nan nan nan nan nan nan nan nan nan nan nan nan nan nan nan nan nan nan nan nan nan nan nan nan nan -0 -0 -0 nan -0 -0 -0 -0 -0 -0 -0 -0 -0 nan nan nan nan nan
nan nan nan nan nan nan nan nan nan nan nan nan nan nan nan nan nan nan nan nan nan nan nan nan nan nan nan nan nan nan nan nan nan nan nan nan nan nan nan nan nan nan nan nan nan nan nan nan nan nan nan nan nan nan nan nan nan nan nan nan nan nan nan nan nan nan nan -0 -0 -0 -0 -0 -0 -0 -0 -0 -0 -0 -0 -0 -0 nan nan -0 -0 -0
nan nan nan nan nan nan nan nan nan nan nan nan nan nan nan nan nan nan nan nan nan nan nan nan nan nan nan nan nan nan nan nan nan nan nan nan nan nan nan nan nan nan nan nan nan nan nan nan nan nan nan nan nan nan nan nan nan nan nan nan nan nan nan nan nan nan nan -0 -0 -0 -0 -0 -0 -0 -0 -0 -0 -0 -0 -0 -0 -0 nan -0 -0 -0
nan nan nan nan nan nan nan nan nan nan nan nan nan nan nan nan nan nan nan nan nan nan nan nan nan nan nan nan nan nan nan nan nan nan nan nan nan nan nan nan nan nan nan nan nan nan nan nan nan nan nan nan nan nan nan nan nan nan nan nan nan nan nan nan nan nan -0 -0 -0 -0 -0 -0 -0 -0 -0 -0 -0 -0 -0 -0 -0 -0 -0 -0 -0 -0
nan nan nan nan nan nan nan nan nan nan nan nan nan nan nan nan nan nan nan nan nan nan nan nan nan nan nan nan nan nan nan nan nan nan nan nan nan nan nan nan nan nan nan nan nan nan nan nan nan nan nan nan nan nan nan nan nan nan nan nan nan nan nan nan nan -0 -0 -0 -0 -0 -0 -0 -0 -0 -0 -0 -0 -0 -0 -0 -0 -0 -0 -0 -0 -0
nan nan nan nan nan nan nan nan nan nan nan nan nan nan nan nan nan nan nan nan nan nan nan nan nan nan nan nan nan nan nan nan nan nan nan nan nan nan nan nan nan nan nan nan nan nan nan nan nan nan nan nan nan nan nan nan nan nan nan nan nan nan nan nan nan -0 -0 -0 -0 -0 -0 -0 -0 -0 -0 -0 -0 -0 -0 -0 -0 -0 -0 -0 -0 -0
nan nan nan nan nan nan nan nan nan nan nan nan nan nan nan nan nan nan nan nan nan nan nan nan nan nan nan nan nan nan nan nan nan nan nan nan nan nan nan nan nan nan nan nan nan nan nan nan nan nan nan nan nan nan nan nan nan nan nan nan nan nan nan nan nan -0 -0 -0 -0 -0 -0 -0 -0 -0 -0 -0 -0 -0 -0 -0 -0 -0 -0 -0 -0 -0
nan nan nan nan nan nan nan nan nan nan nan nan nan nan nan nan nan nan nan nan nan nan nan nan nan nan nan nan nan nan nan nan nan nan nan nan nan nan nan nan nan nan nan nan nan nan nan nan nan nan nan nan nan nan nan nan nan nan nan nan nan nan nan nan nan -0 -0 -0 -0 -0 -0 -0 -0 -0 -0 -0 -0 -0 -0 -0 -0 -0 -0 -0 -0 -0
nan nan nan nan nan nan -0 -0 -0 -0 -0 nan nan nan nan nan nan nan nan nan nan nan nan nan nan nan nan nan nan nan nan nan nan nan nan nan nan nan nan nan nan nan nan nan nan nan nan nan nan nan nan nan nan nan nan nan nan nan nan nan nan nan nan nan nan -0 -0 -0 -0 -0 -0 -0 -0 -0 -0 -0 -0 -0 -0 -0 -0 -0 -0 -0 -0 -0
nan nan nan nan nan -0 -0 -0 -0 -0 -0 -0 nan nan nan nan nan nan nan nan nan nan nan nan nan nan nan nan nan nan nan nan nan nan nan nan nan nan nan nan nan nan nan nan nan nan nan nan nan nan nan nan nan nan nan nan nan nan nan nan nan nan nan nan nan nan -0 -0 -0 -0 -0 -0 -0 -0 -0 -0 -0 -0 -0 -0 -0 -0 -0 -5 -5 nan
-0 -0 -0 -0 -0 -0 -0 -0 -0 -0 -0 -0 nan nan nan nan nan nan nan nan nan nan nan nan nan nan nan nan nan nan nan nan nan nan nan nan nan nan nan nan nan nan nan nan nan nan nan nan nan nan nan nan nan nan nan nan nan nan nan nan nan nan nan nan nan nan -0 -0 -0 -0 -0 -0 -0 -0 -0 -0 -0 -0 -0 -0 -0 -0 -1 nan nan nan
nan nan nan nan nan nan -0 nan -0 -0 -0 -0 nan nan nan nan nan nan nan nan nan nan nan nan nan nan nan nan nan nan nan nan nan nan nan nan nan nan nan nan nan nan nan nan nan nan nan nan nan nan nan nan nan nan nan nan nan nan nan nan nan nan nan nan nan -0 -0 -0 -0 -0 -0 -0 -0 -0 -0 -0 -0 -0 -0 -0 -0 -11 nan nan nan nan
nan nan nan nan nan nan nan nan nan nan -0 -0 nan nan nan nan nan nan nan nan nan nan nan nan nan nan nan nan nan nan nan nan nan nan nan nan nan nan nan nan nan nan nan nan nan nan nan nan nan nan nan nan nan nan nan nan nan nan nan nan nan nan nan nan nan -3 -0 -0 -0 -0 -0 -0 -0 -0 -0 -0 -0 -0 -0 -0 -0 nan nan nan nan nan
nan nan nan nan nan nan nan nan nan nan nan nan nan nan nan nan nan nan nan nan nan nan nan nan nan nan nan nan nan nan nan nan nan nan nan nan nan nan nan nan nan nan nan nan nan nan nan nan nan nan nan nan nan nan nan nan nan nan nan nan nan nan nan nan nan nan nan nan nan nan -13 -11 -0 -0 -0 -0 -0 -0 -0 -0 -0 -2 nan nan nan nan
nan nan nan nan nan nan nan nan nan nan nan nan nan nan nan nan nan nan nan nan nan nan nan nan nan nan nan nan nan nan nan nan nan nan nan nan nan nan nan nan nan nan nan nan nan nan nan nan nan nan nan nan nan nan nan nan nan nan nan nan nan nan nan nan nan nan nan nan nan nan nan nan nan nan -8 -0 -0 -0 -0 -0 -0 -5 nan nan nan nan
nan nan nan nan nan nan nan nan nan nan nan nan nan nan nan nan nan nan nan nan nan nan nan nan nan nan nan nan nan nan nan nan nan nan nan nan nan nan nan nan nan nan nan nan nan nan nan nan nan nan nan nan nan nan nan nan nan nan nan nan nan nan nan nan nan nan nan nan nan nan nan nan nan nan nan nan -11 -11 -0 -0 -0 -2 -6 nan nan nan
nan nan nan nan nan nan nan nan nan nan nan nan nan nan nan nan nan nan nan nan nan nan nan nan nan nan nan nan nan nan nan nan nan nan -0 nan nan nan nan nan nan nan nan nan nan nan nan nan nan nan nan nan nan nan nan nan nan nan nan nan nan nan nan nan nan nan nan nan nan nan nan nan nan nan nan nan nan nan nan -0 -0 -0 -0 -13 -13 nan
nan nan nan nan nan nan nan nan nan nan nan nan nan nan nan nan nan nan nan nan nan nan nan nan nan nan nan nan nan nan nan nan nan nan -0 nan nan nan nan nan nan nan nan nan nan nan nan nan nan nan nan nan nan nan nan nan nan nan nan nan nan nan nan nan nan nan nan nan nan nan nan nan nan nan nan nan nan nan nan nan nan nan -5 -7 -7 nan
nan nan nan nan nan nan nan nan nan nan nan nan nan nan nan nan nan nan nan nan nan nan nan nan nan nan nan nan nan nan nan nan nan nan -1 nan nan nan nan nan nan nan nan nan nan nan nan nan nan nan nan nan nan nan nan nan nan nan nan nan nan nan nan nan nan nan nan nan nan nan nan nan nan nan nan nan nan nan nan nan nan nan nan -6 -6 -9
nan nan nan nan nan nan nan nan nan nan nan nan nan nan nan nan nan nan nan nan nan nan nan nan nan nan nan nan nan nan nan nan nan nan nan nan nan nan nan nan nan nan nan nan nan nan nan nan nan nan nan nan nan nan nan nan nan nan nan nan nan nan nan nan nan nan nan nan nan nan nan nan nan nan nan nan nan nan nan nan nan nan nan nan nan nan
nan nan nan nan nan nan nan nan nan nan nan nan nan nan nan nan nan nan nan nan nan nan nan nan nan nan nan nan nan nan nan nan nan nan nan nan nan nan nan nan nan nan nan nan nan nan nan nan nan nan nan nan nan nan nan nan nan nan nan nan nan nan nan nan nan nan nan nan nan nan nan nan nan nan nan nan nan nan nan nan nan nan nan nan nan nan
nan nan nan nan nan nan nan nan nan nan nan nan nan nan nan nan nan nan nan nan nan nan nan nan nan nan nan nan nan nan nan nan nan nan nan nan nan nan nan nan nan nan nan nan nan nan nan nan nan nan nan nan nan nan nan nan nan nan nan nan nan nan nan nan nan nan nan nan nan nan nan nan nan nan nan nan nan nan nan nan nan nan nan nan nan nan
nan nan nan nan nan nan nan nan nan nan nan nan nan nan nan nan nan nan nan nan nan nan nan nan nan nan nan nan nan nan nan nan nan nan nan nan nan nan nan nan nan nan nan nan nan nan nan nan nan nan nan nan nan nan nan nan nan nan nan nan nan nan nan nan nan nan nan nan nan nan nan nan nan nan nan nan nan nan nan nan nan nan nan nan nan nan
nan nan nan nan nan nan nan nan nan nan nan nan nan nan nan nan nan nan nan nan nan nan nan nan nan nan nan nan nan nan nan nan nan nan nan nan nan nan nan nan nan nan nan nan nan nan nan nan nan nan nan nan nan nan nan nan nan nan nan nan nan nan nan nan nan nan nan nan nan nan nan nan nan nan nan nan nan nan nan nan nan nan nan nan nan nan
nan nan nan nan nan nan nan nan nan nan nan nan nan nan nan nan nan nan nan nan nan nan nan nan nan nan nan nan nan nan nan nan nan nan nan nan nan nan nan nan nan nan nan nan nan nan nan nan nan nan nan nan nan nan nan nan nan nan nan nan nan nan nan nan nan nan nan nan nan nan nan nan nan nan nan nan nan nan nan nan nan nan nan nan nan nan
nan nan nan nan nan nan nan nan nan nan nan nan nan nan nan nan nan nan nan nan nan nan nan nan nan nan nan nan nan nan nan nan nan nan nan nan nan nan nan nan nan nan nan nan nan nan nan nan nan nan nan nan nan nan nan nan nan nan nan nan nan nan nan nan nan nan nan nan nan nan nan nan nan nan nan nan nan nan nan nan nan nan nan nan nan nan
nan nan nan nan nan nan nan nan nan nan nan nan nan nan nan nan nan nan nan nan nan nan nan nan nan nan nan nan nan nan nan nan nan nan nan nan -0 -0 nan nan nan nan nan nan nan nan nan nan nan nan nan nan nan nan nan nan nan nan nan nan nan nan nan nan nan nan nan nan nan nan nan nan nan nan nan nan nan nan nan nan nan nan nan nan nan nan
nan nan nan nan nan nan nan nan nan nan nan nan nan nan nan nan nan nan nan nan nan nan nan nan nan nan nan nan nan nan nan nan nan nan nan nan nan nan nan nan nan nan nan nan nan nan nan nan nan nan nan nan nan nan nan nan nan nan nan nan nan nan nan nan nan nan nan nan nan nan nan nan nan nan nan nan nan nan nan nan nan nan nan nan nan nan
nan nan nan nan nan nan nan nan nan nan nan nan nan nan nan nan nan nan nan nan nan nan nan nan nan nan nan nan nan nan nan nan nan nan nan nan nan nan nan -0 -0 nan nan nan nan nan nan nan nan nan nan nan nan nan nan nan nan nan nan nan nan nan nan nan nan nan nan nan nan nan nan nan nan nan nan nan nan nan nan nan nan nan nan nan nan nan
nan nan nan nan nan nan nan nan nan nan nan nan nan nan nan nan nan nan nan nan nan nan nan nan nan nan nan nan nan nan nan nan nan nan nan nan nan nan nan nan nan nan -0 nan nan nan nan nan nan nan nan nan nan nan nan nan nan nan nan nan nan nan nan nan nan nan nan nan nan nan nan nan nan nan nan nan nan nan nan nan nan nan nan nan nan nan
nan nan nan nan nan nan nan nan nan nan nan nan nan nan nan nan nan nan nan nan nan nan nan nan nan nan nan nan nan nan nan nan nan nan nan nan nan nan nan nan nan nan nan -0 -0 -0 nan nan nan nan nan nan nan nan nan nan nan nan nan nan nan nan nan nan nan nan nan nan nan nan nan nan nan nan nan nan nan nan nan nan nan nan nan nan nan nan
nan nan nan nan nan nan nan nan nan nan nan nan nan nan nan nan nan nan nan nan nan nan nan nan nan nan nan nan nan nan nan nan nan nan nan nan nan nan nan nan nan nan nan nan nan nan nan -0 -0 nan nan nan nan nan nan nan nan nan nan nan nan nan nan nan nan nan nan nan nan nan nan nan nan nan nan nan nan nan nan nan nan nan nan nan nan nan
nan nan nan nan nan nan nan nan nan nan nan nan nan nan nan nan nan nan nan nan nan nan nan nan nan nan nan nan nan nan nan nan nan nan nan nan nan nan nan nan nan nan nan nan nan nan nan nan nan nan nan -0 nan nan nan nan nan nan nan nan nan nan nan nan nan nan nan nan nan nan nan nan nan nan nan nan nan nan nan nan nan nan nan nan nan nan
Wind_Speed
1 2 2 3 3 3 3 3 4 4 3 3 2 2 2 2 2 3 3 3 2 3 3 4 4 5 7 10 12 13 13 12 12 11 11 11 10 9 8 8 8 8 8 8 8 8 8 8 7 7 7 6 6 7 7 7 8 8 8 8 8 8 8 8 9 9 9 9 8 8 8 7 7 6 5 5 4 4 3 3 3 2 2 1 1 1
1 2 2 3 4 4 3 3 4 4 4 4 3 3 3 3 2 2 3 3 2 2 3 3 4 5 5 7 10 12 12 11 11 11 11 11 10 9 8 8 8 8 8 8 8 8 8 7 7 7 7 6 6 6 6 7 7 7 8 8 8 8 8 8 8 9 9 9 8 8 8 7 6 5 5 4 4 3 3 3 2 2 1 1 1 1
2 2 2 3 3 3 3 3 3 3 3 4 3 3 4 4 3 2 2 2 2 2 2 3 3 4 4 5 8 11 11 11 10 11 11 11 10 9 8 8 7 7 7 8 8 8 7 7 7 7 6 6 6 6 6 7 7 7 8 8 8 9 9 9 9 9 9 9 9 8 7 6 5 5 4 3 3 3 2 2 2 1 1 1 1 1
2 2 3 2 2 2 2 2 2 2 2 3 3 3 4 3 3 2 2 2 2 2 3 3 3 3 3 3 6 9 10 10 10 10 10 10 10 9 8 7 7 7 7 7 7 7 7 7 7 6 6 6 6 6 7 7 7 8 8 9 10 10 10 10 10 10 9 9 8 7 6 6 5 4 4 3 3 2 2 2 1 1 1 1 2 2
2 3 3 2 2 1 1 2 2 2 2 2 2 3 3 3 2 2 2 2 2 3 3 3 4 3 3 2 3 6 9 9 9 9 10 9 9 8 8 7 7 6 6 6 6 6 6 6 6 6 6 6 6 6 7 7 7 8 8 9 10 10 10 10 9 9 8 8 7 6 5 5 4 4 3 3 3 2 2 2 1 1 1 1 2 2
2 2 3 2 2 1 1 1 2 2 2 2 2 2 2 2 2 2 2 2 2 2 2 3 3 3 3 3 3 4 6 8 8 8 8 8 8 8 7 7 6 6 6 6 6 6 5 6 6 6 6 6 6 6 6 6 7 7 8 8 9 9 9 8 8 8 7 6 6 5 4 4 4 3 3 3 3 2 2 2 2 2 2 2 2 2
2 2 2 2 2 1 1 1 2 2 2 2 2 2 2 2 2 2 2 2 2 2 2 2 2 3 3 4 4 4 5 6 6 6 6 7 7 7 7 7 7 6 5 5 5 5 5 5 5 5 6 6 6 6 6 6 6 7 7 7 8 8 7 7 7 6 5 5 4 4 3 3 3 2 2 2 2 2 2 3 3 3 3 2 3 3
2 2 2 2 1 1 1 1 2 2 2 2 2 2 1 1 2 2 2 2 2 2 2 2 2 2 3 3 4 4 4 4 5 4 4 4 5 5 6 7 6 6 5 5 4 4 4 5 5 5 6 6 7 7 7 7 6 6 7 7 7 6 6 6 5 4 4 3 3 3 2 2 2 2 2 2 2 3 3 3 3 4 4 4 4 4
3 3 2 2 2 2 1 1 1 2 2 2 2 3 2 2 1 1 2 2 2 2 1 2 2 2 2 3 3 3 4 4 4 4 4 3 2 3 3 4 5 5 6 5 5 5 5 5 5 5 6 7 7 7 7 7 7 6 6 6 5 5 4 4 3 3 2 2 2 1 1 1 1 1 2 2 3 3 3 4 4 4 5 5 5 5
3 3 3 2 2 2 2 2 1 1 0 1 1 2 2 3 3 2 1 1 1 1 1 2 2 2 2 2 3 3 3 4 5 5 5 5 5 5 5 4 2 3 5 5 5 5 5 5 5 5 5 6 7 7 8 7 7 6 6 5 4 4 3 2 2 2 1 1 1 0 0 1 1 2 3 3 3 4 4 4 5 5 5 5 5 5
3 3 3 2 1 1 2 1 1 1 1 2 2 1 0 2 3 4 4 3 1 1 1 1 1 1 1 1 2 2 3 3 4 4 5 6 6 7 7 6 5 3 2 3 3 4 4 4 4 4 5 6 6 7 7 7 7 6 5 4 4 3 2 2 2 2 1 1 1 1 1 1 2 3 3 4 4 5 5 5 5 5 6 6 6 6
2 2 2 2 2 1 2 1 1 1 2 2 2 1 1 1 2 3 5 4 3 2 1 1 1 1 1 1 1 2 2 2 2 2 3 4 5 5 5 5 5 5 4 3 3 3 3 3 3 4 4 4 5 6 6 6 5 5 5 4 4 3 3 3 3 3 2 2 2 2 2 2 3 3 4 4 5 5 5 5 6 6 6 6 6 6
2 2 2 2 2 2 2 2 2 2 2 3 4 4 4 2 1 1 2 3 3 2 1 1 1 1 1 1 1 1 1 1 1 2 2 3 3 4 3 3 3 3 4 4 4 4 4 5 4 4 5 4 4 4 5 4 4 4 4 4 4 4 4 4 4 4 3 3 3 3 3 3 4 4 4 4 5 5 5 5 6 6 6 6 6 6
2 2 2 2 2 2 3 3 3 4 4 4 4 3 3 2 2 2 2 2 1 1 1 2 1 1 1 1 1 1 1 1 1 1 2 2 2 2 2 2 2 2 2 2 2 3 4 4 4 4 5 4 4 4 3 3 3 3 4 4 4 4 4 4 4 4 4 4 4 3 3 4 4 4 5 4 4 4 5 5 5 5 6 6 6 5
3 3 3 3 3 3 3 4 4 4 5 3 2 1 2 2 2 2 3 2 1 1 1 2 1 1 1 0 0 1 1 1 2 2 1 1 2 2 2 1 2 2 2 2 1 1 3 3 2 2 2 2 2 2 2 2 2 3 4 4 4 5 5 5 5 5 5 4 4 4 4 4 4 5 4 4 4 4 4 4 5 5 5 5 5 5
3 3 3 4 4 3 3 3 4 3 3 2 2 2 3 3 3 3 3 3 2 2 2 2 1 0 1 0 1 1 1 2 2 3 2 0 1 2 2 1 1 1 2 1 0 1 2 1 1 1 1 0 1 2 3 3 3 4 4 5 5 5 5 6 6 6 6 5 5 5 4 5 5 5 4 4 3 3 4 4 4 5 5 5 5 5
2 3 3 3 3 3 3 3 3 2 2 2 2 2 3 3 4 4 3 3 3 2 2 3 2 2 2 1 0 1 1 2 2 3 2 1 1 2 2 1 1 0 1 1 1 1 1 1 1 1 1 2 3 4 4 4 5 5 5 6 6 6 6 6 7 7 6 6 6 5 5 5 5 4 4 3 3 3 3 4 4 4 5 5 5 5
2 3 3 3 3 3 2 3 2 2 2 2 2 2 2 1 2 3 3 3 3 3 3 3 3 2 2 2 1 0 1 1 2 3 2 1 1 2 2 1 1 0 1 1 1 1 1 1 1 1 2 3 4 5 5 5 6 6 6 6 7 7 7 7 7 7 7 7 6 6 5 5 5 5 4 4 4 3 4 4 4 4 4 5 5 5
2 2 2 2 2 2 2 3 3 3 3 3 3 3 2 2 2 2 3 3 3 4 4 3 3 2 2 2 1 1 1 0 2 3 3 2 1 2 2 2 1 1 1 2 1 1 1 1 2 3 4 4 5 6 6 6 7 7 7 7 7 7 8 8 8 8 7 7 7 6 6 6 5 5 4 4 4 4 4 4 3 4 4 4 5 5
2 2 3 2 2 2 2 3 4 4 4 4 4 3 3 2 2 3 3 3 3 3 2 3 3 3 2 2 1 1 1 0 2 3 3 2 1 1 2 2 1 0 1 2 2 1 1 1 2 3 4 5 5 6 7 7 7 7 7 7 7 8 8 8 8 8 8 7 7 6 6 6 5 5 5 5 4 4 4 4 4 4 4 4 4 5
2 3 3 2 2 2 3 3 4 4 4 4 4 4 3 3 3 3 3 3 3 3 2 3 3 3 2 2 1 1 2 0 2 3 2 1 1 1 1 2 1 0 1 2 1 1 1 2 2 2 3 4 5 6 7 7 7 7 7 7 8 8 8 8 8 8 8 7 7 7 6 6 6 6 5 5 5 5 5 4 4 4 4 4 5 5
2 3 3 3 3 3 3 3 4 5 5 6 5 4 4 4 4 4 4 4 4 4 4 3 2 1 1 1 1 1 1 1 2 3 3 1 1 2 1 1 1 1 2 2 2 2 2 2 2 3 3 4 5 6 7 7 7 8 8 8 8 8 8 8 8 8 8 8 7 7 7 7 7 6 6 6 6 6 5 5 5 5 5 5 5 5
2 2 2 3 3 2 2 2 3 4 5 5 5 4 3 4 4 4 4 5 4 3 3 2 2 1 1 0 0 1 1 1 1 2 3 2 2 2 1 1 1 0 2 2 2 2 2 2 2 2 3 4 5 5 6 7 7 7 8 8 8 8 8 8 8 8 8 8 7 7 7 7 7 7 7 7 7 7 6 6 6 6 6 6 6 6
1 1 2 2 2 2 2 2 3 3 3 3 3 2 2 2 2 2 2 3 3 3 3 3 2 2 2 1 1 1 1 1 1 1 3 2 2 2 1 1 0 1 2 2 2 2 3 2 2 2 2 3 4 4 5 6 7 7 7 8 8 8 8 8 8 8 8 7 7 7 7 7 8 8 8 8 8 8 8 7 7 7 7 7 7 7
0 1 1 2 2 3 3 3 4 4 4 4 4 4 4 5 5 5 4 4 4 3 3 3 2 2 2 3 2 1 1 1 1 1 3 2 1 1 1 0 1 1 2 2 1 2 2 2 2 2 2 3 3 4 4 5 6 7 8 8 8 8 8 8 8 8 7 7 7 7 8 8 8 9 9 9 9 9 9 8 8 8 8 8 7 7
1 1 2 3 4 5 5 6 7 7 7 6 5 4 5 5 5 5 4 3 3 3 4 3 2 0 1 2 2 2 1 1 1 1 2 2 1 1 1 0 0 1 2 2 2 1 1 2 2 2 2 2 3 4 4 5 6 7 8 8 9 9 8 8 8 7 7 7 7 8 8 8 9 9 9 9 9 9 9 9 9 9 8 8 8 8
4 4 4 4 5 6 6 7 9 10 10 9 8 7 6 5 5 4 3 3 4 4 4 3 2 1 1 1 2 2 2 1 1 1 2 2 1 0 1 0 0 1 2 2 2 1 1 1 2 2 2 2 3 4 4 5 5 6 8 8 8 8 8 7 7 7 7 7 7 8 8 8 9 9 9 9 9 9 9 9 9 9 9 8 7 6
8 8 7 6 5 6 6 8 9 10 11 11 11 10 7 5 4 4 4 4 4 4 4 3 3 2 1 2 2 2 2 2 1 2 2 2 1 1 1 0 0 0 1 1 2 2 1 1 2 2 2 2 3 3 4 4 4 4 5 5 6 6 6 7 7 7 7 7 7 8 8 8 9 9 9 9 9 9 9 9 9 9 8 6 3 1
10 10 10 9 7 6 7 7 8 9 10 11 10 8 5 3 4 4 4 4 4 4 4 3 3 2 2 1 2 2 2 2 2 2 3 2 1 1 0 0 0 0 0 1 2 2 2 1 1 2 2 2 2 2 3 3 4 4 4 2 2 3 4 5 6 6 7 7 7 8 8 9 9 9 9 9 9 9 9 9 9 7 4 3 3 2
8 9 9 9 9 7 6 5 5 7 9 9 7 5 3 2 2 3 4 5 5 4 4 3 3 2 2 1 1 2 2 3 2 2 3 2 1 1 0 0 0 0 1 1 1 2 2 2 2 1 1 2 2 2 2 2 3 3 3 3 2 1 1 2 4 5 6 7 8 8 9 9 9 9 9 9 9 10 10 10 7 4 3 3 3 2
5 5 5 6 6 6 6 5 4 4 6 6 6 5 4 3 3 3 4 4 4 4 4 4 3 3 2 2 1 1 2 2 2 2 3 3 2 1 2 1 0 0 0 1 1 0 2 2 2 2 1 1 2 2 2 2 2 2 2 2 2 2 2 2 1 2 4 5 6 7 8 9 9 9 9 9 9 10 10 10 8 5 4 3 2 2
3 4 4 4 4 4 4 4 4 4 4 5 4 4 4 3 3 3 3 3 4 4 4 4 3 3 2 2 2 2 2 2 2 3 3 3 2 1 2 2 1 0 0 1 2 2 1 1 2 2 2 2 2 2 2 1 1 2 2 2 2 2 3 3 3 2 2 2 3 4 5 6 7 8 9 9 10 10 10 10 9 6 4 4 3 3
3 3 3 3 3 3 3 3 3 3 3 3 3 3 3 3 3 3 3 3 3 3 4 4 3 2 2 1 1 2 3 2 3 5 5 3 2 1 1 2 2 1 1 1 1 2 2 1 1 2 3 2 2 2 2 1 1 1 1 1 1 1 2 3 3 3 3 3 2 2 2 2 3 5 6 8 8 9 10 10 9 6 5 4 4 3
3 3 3 3 3 3 3 3 3 3 3 3 2 2 2 2 3 3 3 2 2 3 3 4 4 3 2 1 1 2 3 3 4 5 6 4 3 2 2 2 2 2 2 1 1 1 1 0 0 1 2 2 2 2 1 1 1 1 1 1 1 1 2 2 2 2 2 2 2 3 3 3 3 2 2 3 5 6 7 8 8 8 7 5 4 4
3 3 3 3 3 3 3 3 3 3 3 2 2 2 2 2 2 2 2 2 2 2 2 3 3 4 4 3 2 2 3 3 4 6 6 4 3 2 2 2 2 3 3 2 1 1 1 0 0 1 1 2 2 2 2 1 1 0 0 0 0 0 1 1 1 1 2 2 2 2 2 2 2 3 2 2 2 3 5 6 7 8 8 7 6 5
2 2 2 3 2 2 2 2 2 2 2 2 1 1 1 1 1 1 2 2 2 2 2 1 1 2 3 3 3 3 3 3 4 6 6 4 3 3 2 2 3 3 3 3 2 2 2 1 0 1 1 1 1 2 2 2 1 1 1 1 0 0 0 0 0 1 1 1 1 1 1 1 1 2 2 2 2 2 3 4 5 6 7 7 7 7
2 1 1 1 1 1 1 1 1 1 1 1 1 1 1 1 1 1 1 1 2 2 2 2 1 1 1 2 2 2 2 2 3 5 5 4 3 3 2 2 3 3 3 3 3 3 2 2 1 1 1 0 1 2 2 2 2 2 1 1 1 1 0 0 1 1 0 0 0 1 0 0 1 1 2 2 3 2 2 3 4 4 5 6 7 8
1 0 1 1 0 0 0 1 1 1 1 0 0 1 1 1 1 1 1 1 1 1 1 1 1 2 2 1 1 1 1 2 2 3 5 4 3 3 2 2 2 2 2 3 3 4 3 3 2 0 1 1 2 2 1 1 1 1 2 2 1 1 1 0 0 0 0 1 1 1 0 0 1 1 2 2 2 2 2 2 3 3 4 4 5 6
1 1 1 1 1 1 1 1 1 1 0 1 1 1 1 1 2 1 1 1 1 1 1 1 1 1 2 2 1 1 2 1 2 2 3 4 3 3 3 2 2 2 1 2 2 3 4 3 3 2 2 1 2 2 1 1 1 1 2 2 2 1 1 0 1 1 1 1 1 1 0 0 1 1 1 1 1 1 0 1 1 1 2 2 2 4
2 2 2 2 2 2 2 1 1 0 1 1 1 1 1 1 1 1 1 1 1 1 1 1 1 0 1 1 1 1 2 1 1 2 2 3 3 3 3 3 3 2 2 1 2 2 3 3 3 3 3 2 2 1 1 1 1 1 0 0 1 1 1 1 1 1 1 1 1 1 1 0 0 0 0 0 1 1 2 2 1 0 1 1 0 1
2 2 2 2 2 2 1 1 1 1 1 1 1 1 1 1 1 1 1 1 1 1 1 1 1 1 1 1 1 1 1 1 1 1 2 2 3 3 3 3 3 3 3 2 1 1 2 3 3 3 2 2 2 1 1 2 2 2 2 2 2 2 2 1 1 1 1 0 1 1 1 1 1 1 1 1 2 2 2 2 2 1 1 1 2 2
3 3 2 2 1 1 1 1 1 1 1 1 1 1 1 1 1 1 1 1 1 1 1 1 1 1 1 2 1 1 1 0 1 2 2 2 2 3 3 3 3 3 3 2 1 1 1 2 3 3 3 3 2 1 1 2 2 2 3 2 1 1 2 1 0 1 1 0 1 1 2 1 1 1 2 2 2 2 2 2 2 2 2 2 2 3
4 3 2 2 2 2 2 1 1 1 1 1 1 1 2 1 2 2 2 1 1 0 1 1 1 1 0 1 2 2 1 1 1 1 2 2 3 3 3 3 4 4 4 3 2 1 1 1 2 3 3 3 3 3 3 2 2 2 3 3 2 1 1 2 1 0 1 1 1 1 2 2 1 1 1 1 1 1 1 2 3 4 4 3 3 3
3 2 1 2 1 1 1 1 1 1 1 1 1 2 1 1 2 2 2 1 1 1 1 1 2 2 1 0 2 2 2 2 2 1 1 3 4 3 2 2 3 3 4 3 3 2 1 1 2 2 3 3 3 3 3 3 3 3 3 3 4 3 3 2 1 1 0 1 1 2 2 2 1 0 0 1 1 1 1 2 2 3 4 3 3 3
2 2 1 1 1 1 1 2 1 1 1 2 2 2 1 1 2 2 2 2 1 1 1 1 2 1 0 1 1 2 2 3 3 2 1 1 3 4 3 2 2 2 3 3 3 3 3 3 2 2 1 2 3 4 4 4 4 4 4 4 4 4 4 2 2 2 2 1 2 2 2 2 1 1 0 1 1 2 2 2 3 3 3 3 3 3
2 2 2 1 1 2 2 2 2 1 1 2 2 2 1 2 2 2 2 2 2 2 1 1 2 2 2 1 1 1 1 2 2 2 2 2 1 1 3 3 3 2 2 2 2 2 3 3 3 2 2 2 3 4 5 5 5 4 4 4 4 4 4 3 3 3 3 3 2 2 2 2 2 1 1 2 2 2 2 3 3 4 4 4 4 4
3 3 3 2 2 2 2 2 2 2 2 2 2 2 2 2 2 2 2 2 2 2 2 1 2 2 3 2 2 1 1 1 1 1 1 2 1 1 1 2 3 3 2 2 2 2 2 2 3 3 3 3 3 5 5 5 5 5 4 4 3 3 4 4 4 4 4 4 3 3 3 2 2 1 2 2 2 3 3 3 3 4 4 4 4 4
4 4 3 3 3 2 2 2 2 2 2 2 2 2 2 2 3 3 2 2 3 3 3 2 2 3 3 3 2 2 2 2 1 1 1 0 1 0 1 1 2 2 2 3 3 3 3 3 3 4 4 4 5 5 5 4 5 5 4 4 3 4 5 5 4 4 4 4 4 4 4 3 3 3 3 2 2 2 3 3 3 3 4 4 4 4
4 4 4 3 3 3 3 3 3 3 3 3 3 2 2 3 4 4 3 3 3 3 3 3 3 4 4 3 3 3 3 2 2 1 1 1 0 1 1 2 2 2 2 2 3 3 3 4 5 6 6 6 6 6 5 5 4 4 4 4 4 4 5 4 4 3 4 4 4 4 4 4 4 4 3 3 3 3 3 3 3 4 4 4 4 4
4 4 4 4 4 4 4 4 4 4 4 4 3 3 2 2 2 3 3 3 3 3 3 4 4 4 4 4 3 3 3 3 2 2 2 1 1 1 2 2 2 2 2 1 1 2 2 3 5 7 10 11 10 9 7 5 4 3 3 4 4 4 4 4 4 3 4 4 4 4 4 4 3 3 3 3 3 4 3 3 3 4 4 4 4 5
4 4 4 4 4 4 4 4 4 4 4 4 4 3 3 2 2 2 2 2 3 3 3 4 4 4 5 4 4 4 4 4 3 3 3 2 2 2 3 3 3 3 2 1 1 1 1 2 3 5 8 14 16 15 9 7 5 4 4 4 4 4 4 4 3 3 4 4 4 4 4 3 3 3 3 3 3 4 4 3 3 4 4 3 4 4
Wind_Direction
121 138 157 159 157 161 181 184 175 165 158 149 138 125 106 91 76 63 64 76 99 118 123 122 122 126 131 133 133 133 132 130 128 126 121 117 115 114 115 117 118 118 116 112 109 106 103 101 101 102 104 108 114 120 125 128 131 134 137 138 138 138 137 134 133 131 126 125 123 119 115 112 110 109 108 109 109 109 107 107 106 105 102 95 74 41
112 127 154 166 167 168 179 189 185 175 163 157 151 143 129 116 98 73 58 55 65 88 108 112 112 114 119 128 132 132 132 132 131 128 124 120 119 118 120 120 120 118 116 113 110 106 103 100 98 97 97 99 103 108 112 117 122 126 130 128 126 124 120 116 112 109 106 104 102 100 98 98 98 99 102 105 106 107 104 104 100 97 93 78 53 26
134 142 162 172 175 174 174 188 191 181 162 157 152 146 137 129 118 99 80 62 52 52 63 79 91 99 102 121 130 133 134 133 132 130 126 124 124 124 126 124 122 120 117 115 112 109 106 103 101 99 97 97 98 98 98 101 104 107 109 107 106 103 100 96 93 91 89 88 87 87 86 87 87 89 89 91 92 91 89 86 79 70 56 40 23 9
157 158 164 168 175 178 167 170 171 166 148 141 139 137 134 127 119 106 91 80 66 52 43 46 57 68 73 98 125 134 135 134 133 131 128 129 130 131 132 130 128 125 122 120 117 115 111 109 106 104 102 101 99 96 94 93 93 94 96 95 94 93 92 89 87 86 84 82 81 80 79 78 76 73 70 67 64 62 61 57 50 37 21 12 1 349
170 162 156 156 162 164 139 139 139 134 120 116 118 119 117 114 109 100 87 78 72 63 50 43 43 44 45 47 105 129 134 134 134 134 133 134 136 138 139 138 137 135 132 130 127 124 120 118 115 113 112 109 105 101 98 95 93 93 94 94 94 94 92 91 88 86 84 82 79 77 74 70 65 59 51 44 37 29 21 14 4 354 348 345 337 326
170 156 145 147 146 138 112 133 140 134 117 106 99 93 86 89 92 91 86 77 72 68 62 51 44 38 33 23 58 103 121 129 132 135 136 140 143 146 147 147 147 146 144 141 138 136 134 132 130 128 126 123 119 115 110 105 101 99 97 97 97 96 95 93 90 88 85 83 80 75 71 64 57 49 38 27 15 3 350 338 328 318 311 307 300 295
151 135 128 131 128 119 117 147 157 156 144 126 104 82 62 64 66 69 71 73 74 75 75 68 56 44 33 24 37 60 88 104 113 121 130 143 150 154 155 156 156 155 154 151 150 150 152 152 150 148 146 143 140 135 130 122 115 108 104 102 100 99 98 96 94 91 88 86 82 77 70 62 51 39 23 8 353 340 328 317 307 298 288 281 274 269
140 130 124 127 122 112 113 144 166 172 164 150 139 124 88 69 61 58 59 59 59 64 76 75 65 51 35 23 27 41 64 76 79 84 103 128 146 156 160 162 162 162 162 162 165 170 176 176 173 169 166 163 158 153 147 136 127 118 112 108 105 103 101 100 97 95 91 88 84 78 70 56 39 17 355 339 326 317 308 300 292 285 278 271 264 258
150 153 157 156 146 136 128 139 160 173 173 162 156 154 150 139 114 80 62 48 37 32 45 73 74 61 36 20 19 30 54 72 76 76 79 84 98 122 143 151 159 166 171 174 179 186 194 192 187 181 178 172 167 160 152 143 134 127 121 117 114 110 108 105 103 100 95 93 89 81 64 33 358 335 320 310 302 296 290 285 280 276 271 266 260 256
150 158 163 163 154 141 136 139 141 133 117 130 136 144 157 158 154 146 131 93 34 18 22 55 74 74 42 19 14 23 43 65 72 74 69 70 77 80 73 72 98 156 174 178 183 188 192 189 185 179 175 170 164 157 149 144 139 136 133 131 128 126 123 120 119 121 123 124 122 116 351 312 306 301 296 291 286 280 276 272 269 266 264 261 258 254
146 154 153 151 139 112 106 121 124 105 88 90 80 64 72 166 166 165 169 168 155 69 28 34 48 62 53 19 6 9 26 48 52 49 44 51 59 62 53 47 45 53 129 157 167 172 174 168 164 162 158 157 155 151 144 144 144 146 148 149 151 153 158 165 173 179 182 182 190 212 251 275 283 285 284 279 275 271 266 262 259 256 255 254 253 251
144 149 144 143 134 117 94 88 90 101 116 122 128 157 226 216 186 174 177 174 166 151 120 57 35 32 41 20 358 359 19 42 42 32 26 32 33 32 32 33 33 32 37 48 62 77 96 99 112 123 121 128 136 139 136 141 150 158 166 171 177 185 193 200 203 204 203 204 211 226 250 267 274 276 275 272 268 264 259 255 251 247 245 245 245 246
134 134 132 138 145 148 140 131 130 143 166 177 184 188 193 187 171 155 160 154 148 139 127 101 66 27 4 6 4 14 36 53 51 43 36 30 20 13 8 15 20 22 23 33 37 40 45 55 69 80 80 88 104 118 124 136 154 170 183 191 198 205 210 213 213 213 213 216 223 236 252 265 270 271 269 265 262 258 254 249 244 240 235 235 236 237
131 131 134 151 164 170 167 166 171 179 190 195 191 180 154 136 124 119 115 105 92 70 76 91 83 45 338 349 8 39 72 82 76 63 53 41 24 10 355 3 5 8 16 36 36 27 22 33 45 56 61 68 82 98 108 130 161 185 198 206 212 217 220 221 221 221 222 225 230 241 254 262 265 265 263 260 257 254 250 245 239 233 228 226 226 226
151 153 162 176 182 184 182 182 186 190 191 181 159 110 74 94 126 140 136 123 106 73 74 87 79 40 326 358 26 44 69 96 105 105 90 46 25 15 1 1 5 14 26 47 38 3 5 22 28 28 32 51 80 109 120 137 182 205 211 219 224 227 229 229 229 229 229 231 236 243 252 257 259 259 256 254 252 250 247 242 235 228 221 218 216 215
166 169 179 186 190 190 187 188 190 190 175 142 123 122 130 146 161 166 159 144 134 124 119 126 136 221 279 139 94 85 75 110 125 135 146 96 12 11 9 17 25 27 22 33 326 305 338 358 4 356 342 262 188 175 170 173 197 215 222 228 233 235 237 237 236 236 235 235 237 241 246 250 252 252 249 247 246 245 243 238 231 224 216 210 206 204
173 182 189 190 193 193 185 185 181 170 140 129 131 142 152 162 168 168 158 145 142 148 158 158 166 192 250 273 299 90 93 122 130 134 146 168 349 1 6 31 69 111 331 303 277 275 310 324 326 309 280 251 225 207 196 202 212 223 230 235 239 241 243 242 241 240 238 236 236 237 240 243 243 243 240 240 240 240 239 235 228 220 210 203 199 195
182 190 192 193 192 186 173 174 166 146 129 134 131 119 103 117 139 151 152 151 160 170 177 174 171 172 191 238 255 278 55 129 133 133 138 182 276 346 4 36 77 120 289 281 274 266 274 279 276 265 259 240 228 218 212 217 223 230 237 241 244 245 246 245 244 242 239 236 234 233 235 235 235 233 231 232 234 236 236 232 225 215 205 197 193 190
191 193 193 193 184 169 163 174 172 165 159 160 150 134 110 99 118 142 158 166 173 177 177 183 183 181 182 214 239 308 351 101 137 140 148 190 259 337 1 22 46 52 302 276 272 270 282 280 281 277 268 247 234 226 224 227 231 237 241 244 246 247 248 246 244 242 239 235 232 230 230 229 228 226 224 226 229 231 232 229 222 212 201 195 191 189
191 198 201 182 161 156 175 191 188 182 176 166 156 147 144 143 151 161 170 173 174 171 162 177 187 195 205 231 268 326 343 16 132 143 156 189 260 329 359 19 42 62 279 271 272 281 291 289 288 284 277 259 243 234 231 233 237 240 244 246 247 247 247 245 243 240 237 234 231 228 227 226 224 222 221 223 226 229 230 225 218 208 200 197 194 193
192 207 210 176 160 166 193 198 191 179 167 154 148 146 152 156 167 177 178 169 165 162 159 181 191 196 201 223 264 326 338 41 131 140 148 194 284 320 5 28 58 115 246 265 275 290 298 290 286 281 276 257 246 239 236 237 239 242 244 246 246 246 245 243 241 239 236 233 229 227 225 223 221 218 217 220 223 226 227 223 217 209 202 202 201 199
191 210 209 184 180 187 195 183 173 166 158 156 159 165 167 172 180 185 179 174 174 177 181 183 179 166 152 215 303 333 327 358 128 133 125 186 270 295 355 32 74 136 237 260 277 299 305 293 281 271 266 257 247 241 237 238 240 242 244 245 245 245 244 242 240 238 235 232 229 226 224 222 219 217 215 216 219 222 223 221 216 211 206 208 208 208
195 203 196 189 190 189 170 155 154 156 158 164 170 174 170 177 182 184 180 177 171 160 141 126 107 90 87 83 6 354 344 348 79 114 120 176 233 268 328 7 67 160 243 261 286 308 313 300 288 282 283 268 256 247 241 239 240 242 244 245 245 245 245 243 241 238 235 231 228 225 224 223 220 216 214 213 214 215 218 217 215 212 211 212 214 215
215 212 194 184 175 155 126 132 140 144 142 132 119 105 95 111 119 121 119 127 120 110 104 96 80 55 24 15 11 9 3 3 37 95 121 168 209 246 310 28 81 222 250 264 294 317 319 307 298 298 311 290 274 259 248 244 243 244 246 246 246 246 245 243 241 237 234 230 228 226 226 224 222 218 214 212 210 211 213 214 213 213 212 214 217 219
246 227 194 161 150 145 140 144 144 141 130 112 101 95 91 90 88 84 78 83 92 100 108 103 90 50 2 359 349 332 327 353 30 95 120 153 205 255 288 90 163 216 250 276 306 328 325 311 309 316 327 313 298 282 264 253 248 247 248 248 246 245 244 242 239 236 232 229 228 228 228 227 224 220 216 213 211 210 210 211 212 213 214 215 218 221
132 149 154 152 153 153 153 152 151 148 140 130 122 117 113 106 100 93 88 96 109 120 122 125 127 108 343 338 314 293 292 320 350 103 127 136 162 263 286 199 182 229 264 291 310 333 334 314 311 316 326 320 314 304 284 266 255 250 248 246 244 242 240 238 235 233 230 229 228 229 229 229 226 222 218 214 212 210 210 211 212 213 214 215 217 219
89 101 118 133 142 148 150 151 150 148 145 139 136 135 130 122 115 112 120 140 146 146 146 155 165 187 326 307 287 279 285 293 273 209 145 122 126 221 267 213 202 282 290 298 300 306 316 302 302 307 313 312 318 314 295 280 266 256 252 246 241 237 234 232 231 230 229 229 229 229 229 229 225 221 217 214 212 211 211 211 212 213 213 213 214 216
70 75 81 94 111 127 137 142 145 147 147 145 145 144 140 133 132 143 166 168 160 153 157 162 164 170 198 244 264 280 293 273 242 203 158 112 118 206 246 125 77 350 313 305 307 311 319 288 284 290 298 301 312 317 311 309 300 288 277 256 241 232 227 226 226 226 227 227 227 227 227 225 223 219 215 213 211 210 210 211 212 213 211 203 189 170
53 54 54 58 68 89 116 125 135 142 145 146 146 144 136 134 146 160 172 162 155 154 163 162 158 158 175 224 278 300 293 262 226 184 147 117 126 218 223 83 69 57 55 349 338 335 331 296 276 280 293 304 316 327 330 342 341 335 327 308 268 236 226 225 224 223 223 223 223 223 223 222 219 217 214 212 210 209 210 211 210 205 193 167 138 115
37 39 39 36 39 47 67 81 108 127 133 130 124 113 89 106 135 149 151 148 150 155 164 160 154 150 151 126 349 319 286 263 223 174 147 141 161 209 146 103 90 90 94 70 28 342 317 303 290 280 288 311 320 327 329 345 346 344 342 359 12 13 278 239 230 225 222 221 220 219 219 218 217 216 214 212 211 210 209 209 201 178 110 111 115 120
34 37 35 26 25 29 35 35 47 72 95 91 83 72 66 83 108 126 133 142 146 150 153 155 156 156 148 131 133 228 267 262 227 178 155 153 164 174 145 138 146 278 256 113 117 148 294 301 305 312 332 333 329 327 330 339 343 344 344 10 24 28 19 351 293 251 235 228 224 221 219 218 217 216 216 215 214 213 212 211 202 178 118 122 129 138
49 49 43 33 30 33 37 37 38 42 51 52 51 52 61 74 92 111 124 133 134 132 133 141 149 155 153 152 170 199 239 250 219 187 157 142 136 139 135 129 125 76 305 107 129 148 182 265 295 315 335 335 332 330 332 345 353 355 354 21 30 27 21 19 9 350 320 279 255 242 232 226 222 220 219 218 217 216 215 216 208 187 141 142 149 158
66 58 48 42 41 41 41 41 42 45 47 43 40 39 44 58 76 91 104 113 117 119 122 130 137 145 149 160 194 221 244 247 214 189 164 134 119 122 123 114 114 110 80 59 95 128 152 200 275 308 322 321 321 322 327 343 2 14 9 29 31 19 14 19 16 11 9 359 352 344 318 273 249 235 227 222 220 219 218 218 211 192 151 151 157 164
69 59 48 43 40 38 35 33 35 39 44 44 39 33 29 42 57 70 79 86 99 115 127 135 142 147 151 161 229 262 267 249 213 191 170 137 122 129 133 130 133 133 118 84 63 66 98 127 307 316 317 315 315 317 319 332 351 14 32 46 37 9 359 8 9 7 6 9 12 13 8 358 353 337 275 243 231 225 222 221 213 200 179 168 162 161
66 54 41 34 33 31 28 23 23 25 30 32 30 28 24 32 41 50 58 60 69 91 119 135 146 152 155 161 188 238 261 240 207 189 173 148 132 130 135 157 159 151 135 131 120 102 90 45 8 347 334 322 316 312 311 312 319 336 53 85 90 57 350 6 5 358 355 2 6 5 2 4 7 5 349 316 270 242 232 227 221 213 201 189 179 171
67 53 32 27 27 29 24 15 10 6 2 2 9 19 28 30 31 35 39 39 45 56 76 95 123 143 155 159 172 198 233 224 200 186 176 157 138 131 140 171 171 159 142 142 139 133 124 107 38 17 32 340 304 298 305 317 332 355 18 34 48 90 210 111 74 38 5 2 351 342 345 358 2 358 344 335 317 284 256 245 240 234 225 212 202 192
71 56 18 18 22 23 5 346 330 315 302 318 345 16 45 49 44 38 32 26 25 31 46 55 55 61 113 145 164 185 206 201 192 186 179 157 137 129 137 163 171 166 151 150 147 138 122 108 70 26 18 249 249 265 294 327 343 354 347 343 337 325 309 53 80 81 61 254 256 260 297 354 7 358 345 343 340 331 311 294 282 271 259 244 227 213
73 351 303 319 326 306 276 270 258 250 242 304 10 35 55 62 64 60 46 41 34 34 39 43 31 23 25 49 96 148 167 165 179 185 177 158 141 129 127 138 167 180 166 155 148 141 131 126 124 151 255 250 247 251 273 330 335 314 296 305 308 301 281 339 99 118 167 221 241 249 233 90 59 26 358 1 6 5 345 336 330 320 303 285 261 242
205 237 253 241 223 207 214 228 232 225 137 94 87 86 82 79 76 73 70 74 68 62 58 65 42 23 17 27 49 90 104 120 161 178 167 157 151 143 132 136 154 173 158 134 132 134 135 143 157 173 194 227 253 268 289 303 282 275 289 316 321 311 276 201 160 154 181 194 221 236 233 62 59 48 6 19 32 45 263 290 319 346 359 346 302 275
209 227 241 229 210 195 197 205 199 157 107 103 101 97 94 85 78 74 74 84 86 87 97 118 108 64 29 24 28 45 69 94 147 165 154 158 161 160 150 149 152 154 141 117 117 127 134 147 162 174 177 184 207 237 268 258 250 238 149 58 301 285 278 217 183 173 166 164 186 205 216 191 104 104 213 131 164 182 196 203 210 190 82 96 102 275
206 223 237 231 207 185 174 150 124 116 123 107 90 82 87 81 75 65 54 51 48 48 63 87 72 36 2 9 16 30 52 105 155 160 146 164 172 173 166 159 151 143 138 128 123 131 142 149 161 172 175 172 177 201 244 243 228 203 161 164 199 238 260 230 176 137 127 156 195 206 206 204 208 216 214 211 210 207 196 183 182 181 145 139 152 170
211 219 223 211 193 176 168 144 139 137 125 111 124 153 178 157 136 120 95 58 21 6 29 76 81 48 347 333 332 346 28 40 193 186 165 173 180 183 177 167 157 145 134 127 128 152 177 169 172 177 179 171 168 187 253 257 240 214 193 181 188 296 306 281 247 94 112 172 216 225 216 208 214 221 218 223 231 233 217 201 200 204 202 182 175 178
216 214 199 171 157 155 154 147 143 137 125 139 181 197 193 173 157 144 132 140 163 172 101 101 109 119 141 298 309 319 330 327 298 238 187 182 191 197 191 176 165 154 143 136 143 173 219 205 196 190 184 170 172 190 224 236 235 222 212 181 150 104 309 285 290 15 126 175 190 200 207 207 210 215 224 241 253 254 246 237 237 236 229 206 194 197
207 194 149 136 134 141 146 154 156 156 155 188 209 213 193 177 165 152 135 147 156 149 119 100 96 99 105 265 294 306 312 322 324 313 244 203 198 197 205 190 177 168 159 158 161 164 159 211 223 211 181 168 179 201 222 227 225 219 215 193 181 182 207 226 223 188 167 205 206 201 202 194 181 154 332 296 284 276 256 240 246 247 241 217 202 203
171 154 129 135 137 145 164 179 174 167 173 201 214 213 177 172 171 166 150 148 146 141 132 125 112 105 128 246 280 298 305 319 327 335 332 238 211 205 200 196 193 190 185 187 183 178 174 197 211 211 181 175 194 214 229 233 235 231 221 207 204 207 216 212 190 174 187 206 213 208 191 159 130 103 21 283 268 258 244 232 235 242 245 229 215 212
160 161 161 159 164 178 192 179 164 156 182 216 223 211 163 158 167 175 167 151 145 146 167 154 150 158 186 205 227 266 296 309 323 338 352 352 324 241 207 202 202 205 211 217 214 205 197 195 185 171 151 181 217 228 230 229 234 238 235 217 213 220 234 232 218 201 194 198 198 185 154 130 119 132 221 248 256 257 251 233 228 229 235 228 223 219
184 185 184 179 183 189 190 168 156 160 191 217 221 206 162 148 157 173 175 160 151 147 154 162 177 187 196 194 186 179 188 239 275 302 329 1 8 359 224 217 216 217 214 223 233 239 235 207 182 168 168 196 226 237 236 226 226 230 235 224 217 219 231 234 227 215 203 204 195 171 140 129 142 192 225 239 254 264 264 248 235 228 225 223 221 221
205 204 200 192 189 189 186 173 171 180 202 215 217 202 169 164 169 176 174 170 163 155 150 162 189 206 213 208 197 186 184 197 218 241 263 324 3 7 188 198 207 215 217 226 235 240 238 220 202 193 194 209 227 238 238 224 219 221 226 221 217 221 232 234 227 212 203 209 197 177 156 164 185 203 211 227 250 260 262 259 250 240 228 222 218 218
211 211 208 200 197 199 199 190 189 195 209 215 213 200 175 184 189 188 174 170 169 170 172 183 196 209 220 222 215 207 204 206 209 214 221 204 154 133 159 166 171 178 193 218 234 243 246 236 224 216 213 217 227 237 242 230 219 214 214 214 216 221 232 235 225 207 197 203 198 188 180 191 195 195 188 213 238 251 257 263 260 252 238 224 218 217
214 214 210 205 207 210 210 201 200 204 213 216 213 202 176 187 197 194 172 167 174 185 194 197 202 210 221 223 218 212 210 210 211 215 216 193 166 155 158 158 156 156 162 187 215 238 255 254 242 231 223 219 220 225 235 233 224 212 211 216 217 218 227 233 224 204 190 195 193 189 189 199 196 186 180 209 234 248 256 260 260 255 245 229 221 220
218 217 213 212 215 219 218 210 209 211 215 216 213 204 183 177 180 184 175 176 186 199 209 207 209 214 224 226 220 213 208 207 211 215 211 184 165 161 162 160 157 155 156 170 193 226 274 288 275 253 233 219 214 212 218 221 217 212 218 222 218 214 220 226 220 204 189 188 184 181 183 192 193 189 188 205 228 247 254 253 254 255 251 235 224 221